Location: Sundre
(51.7972°N, 114.6405°W)
Time: 12:50:46
(UTC-06:00)

ISS - Visible Passes

Search period start: 20 October 2019 00:00
Search period end: 30 October 2019 00:00
Orbit: 411 x 421 km, 51.6° (Epoch: 20 October)

Date Brightness Start Highest point End Pass type
(mag) Time Alt. Az. Time Alt. Az. Time Alt. Az.
25 Oct -1.2 07:20:31 10° SSW 07:23:03 20° SE 07:25:35 10° E visible
26 Oct -0.9 06:32:48 10° S 06:34:37 14° SE 06:36:26 10° ESE visible
27 Oct -2.4 07:19:06 10° SW 07:22:13 36° SSE 07:25:21 10° E visible
28 Oct -1.9 06:31:59 17° SSW 06:33:41 26° SSE 06:36:34 10° E visible
29 Oct -1.3 05:45:37 18° SE 05:45:37 18° SE 05:47:39 10° E visible
29 Oct -3.4 07:18:32 13° WSW 07:21:29 61° SSE 07:24:49 10° E visible
